Regional Weather Roundup
Issued by NWS

Home | Current Version | Previous Version | Text Only | Print | Product List | Glossary Off
Versions: 1 2 3 4 5 6 7 8 9 10 11 12 13 14 15 16 17 18 19 20 21 22 23 24 25 26 27 28 29 30 31 32 33 34 35 36 37 38 39 40 41 42 43 44 45 46 47 48 49 50

000
ASUS45 KBOI 021410
RWRID
WEATHER ROUNDUP FOR IDAHO
NATIONAL WEATHER SERVICE BOISE ID
800 AM MDT SAT MAY 02 2015

NOTE: "FAIR" INDICATES FEW OR NO CLOUDS BELOW 12000 FEET
WITH NO SIGNIFICANT WEATHER AND/OR OBSTRUCTIONS TO VISIBILITY

IDZ012-014-021500-
SOUTHWEST IDAHO


CITY           SKY/WX    TMP DP  RH WIND       PRES   REMARKS
BOISE          MOSUNNY   52  27  38 SE7       29.87R
CALDWELL       MOSUNNY   46  30  53 CALM      29.90R
MOUNTAIN HOME  MOSUNNY   48  29  48 CALM      29.87S
$$

IDZ016-017-021500-
SOUTHCENTRAL IDAHO


CITY           SKY/WX    TMP DP  RH WIND       PRES   REMARKS
BURLEY         SUNNY     48  36  63 E3        29.89F
JEROME         MOSUNNY   50  24  36 NE14      29.90S
TWIN FALLS     SUNNY     56  33  42 CALM      29.90R
$$

IDZ019>023-021500-
SOUTHEAST IDAHO


CITY           SKY/WX    TMP DP  RH WIND       PRES   REMARKS
IDAHO FALLS    MOSUNNY   47  35  63 CALM      29.95S
POCATELLO      SUNNY     48  31  51 N3        29.95R
REXBURG        PTSUNNY   43  30  60 NE5       29.95S
$$

IDZ006-010-011-018-031-032-021500-
CENTRAL IDAHO MOUNTAINS


CITY           SKY/WX    TMP DP  RH WIND       PRES   REMARKS
MCCALL         PTSUNNY   41  34  76 CALM      29.92R
HAILEY         MOSUNNY   43  21  42 NW17      29.99S
STANLEY          N/A     32  21  64 CALM      30.02S
SALMON         SUNNY     45  28  53 CALM      29.90S
CHALLIS        MOSUNNY   47  22  37 NE3       29.94R
$$

IDZ002-004-006-007-026-021500-
NORTHERN IDAHO


CITY           SKY/WX    TMP DP  RH WIND       PRES   REMARKS
LEWISTON       PTSUNNY   57  33  40 NW6       29.92R
LOWELL           N/A     43  39  86 CALM      29.96R
COEUR D`ALENE  SUNNY     46  36  66 S5        29.91R
MULLAN PASS    MOSUNNY   38  22  52 SW8       29.88R WCI  32
$$



USA.gov is the U.S. government's official web portal to all federal, state and local government web resources and services.